Location: Newark
(32.3788°N, 35.6119°E)
Time: 03:29:07
(UTC+00:00)

Starlink (trailer) - Visible Passes

Search period start: 22 July 2019 00:00
Search period end: 01 August 2019 00:00
Orbit: 548 x 551 km, 53.0° (Epoch: 21 July)

Date Brightness Start Highest point End Pass type
(mag) Time Alt. Az. Time Alt. Az. Time Alt. Az.
22 Jul 6.7 22:57:44 11° NNW 22:57:44 11° NNW 22:58:19 10° N visible
26 Jul 7.1 02:04:17 10° NNE 02:04:50 10° NNE 02:05:22 10° NE visible
27 Jul 6.7 01:57:40 10° N 01:59:38 13° NNE 02:01:35 10° ENE visible
28 Jul 6.6 01:51:42 10° N 01:54:24 16° NNE 01:57:04 10° ENE visible
28 Jul6.919:10:00NE19:10:00NE18:58:41SWvisible
28 Jul 6.9 20:45:28 12° NNW 20:45:28 12° NNW 20:46:27 10° N visible
29 Jul 6.4 01:45:54 10° NNW 01:49:07 21° NE 01:52:19 10° E visible
29 Jul 5.2 17:17:32 10° SSE 17:20:03 16° ESE 17:22:35 10° E visible
29 Jul 4.5 18:55:16 10° WSW 18:59:16 49° NW 19:03:19 10° NNE visible
30 Jul 5.8 01:40:13 10° NNW 01:43:49 28° NE 01:47:24 10° E visible
30 Jul 4.7 17:11:14 10° S 17:14:31 23° SE 17:17:49 10° ENE visible
30 Jul 5.2 18:50:06 10° WSW 18:53:54 35° NW 18:57:45 10° NNE visible
31 Jul 5.2 01:34:35 10° NNW 01:38:28 38° NE 01:42:20 10° ESE visible
31 Jul 4.3 17:05:16 10° SSW 17:09:00 33° SE 17:12:45 10° ENE visible
31 Jul 5.8 18:45:04 10° W 18:48:35 26° NW 18:52:06 10° NNE visible
